Location: Bois de la Silve
(44.4667°N, 6.7833°E)
Time: 08:09:00
(UTC+00:00)

Cosmos 220 Rocket - Pass Details

Date: 14 July 2020
Orbit: 576 x 616 km, 74.0° (Epoch: 14 August)

Event Time Altitude Azimuth Distance (km) Brightness Sun altitude
Rises 00:54:47 0° 342° (NNW) 2,823 8.3 -21.7°
Reaches altitude 10° 00:57:04 10° 346° (NNW) 1,913 7.4 -21.5°
Maximum altitude 01:01:16 59° 67° (ENE) 674 4.4 -21.3°
Enters shadow 01:02:52 34° 131° (SE) 959 4.8 -21.2°
